Temperature
15 15 15 15 15 14 14 14 14 14 14 14 14 14 14 14 13 13 13 13 13 14 13 13 13 13 13 13 13 13 13 13 13 13 13 13 13 13 13 13 13 13 13
15 15 15 15 14 14 14 14 14 14 14 14 14 14 14 14 13 13 13 13 14 14 13 13 13 13 13 13 13 13 13 13 13 13 13 13 13 13 13 13 13 13 13
15 15 15 14 14 14 14 14 14 14 14 14 14 14 13 13 13 13 13 13 13 13 13 13 13 13 13 13 13 13 13 13 13 13 13 13 13 13 13 12 12 12 13
15 15 15 14 14 14 14 14 14 14 14 14 14 13 13 13 13 13 13 13 13 13 13 13 13 13 13 13 13 13 13 12 12 12 12 12 12 12 12 12 12 12 12
15 15 15 15 14 14 14 14 14 13 14 13 13 13 13 13 13 13 13 13 13 13 13 13 13 13 13 13 13 12 12 12 12 12 12 12 12 12 12 12 12 12 12
15 15 15 14 14 14 14 14 14 14 13 13 13 13 13 13 13 13 13 13 13 13 13 13 13 13 13 13 13 12 12 12 12 12 12 12 12 12 12 12 12 11 11
15 15 15 14 14 14 14 14 14 13 13 13 13 13 13 13 13 13 13 13 13 13 12 12 12 12 12 12 12 12 12 12 12 12 12 12 12 12 12 11 11 11 11
15 15 15 15 14 14 14 14 14 13 13 13 13 13 13 13 13 13 13 13 12 12 12 12 12 12 12 12 12 12 12 12 12 12 12 12 11 11 11 11 11 11 11
15 15 15 14 14 14 14 14 14 13 13 13 13 13 13 13 13 13 12 12 12 12 12 12 12 12 12 12 12 12 11 12 12 11 11 11 11 11 11 11 11 11 11
15 14 14 14 14 14 14 14 14 13 13 13 13 13 13 13 13 12 12 12 12 12 12 12 12 12 12 12 12 11 11 11 11 11 11 11 11 11 11 11 11 10 10
14 14 14 14 14 14 14 13 13 13 13 13 13 13 13 13 12 12 12 12 12 12 11 11 12 12 12 12 11 11 11 11 11 11 11 11 11 11 10 10 10 10 10
14 14 14 14 14 14 13 13 13 13 13 13 13 13 13 12 12 12 12 12 12 12 12 11 11 11 11 11 11 11 11 11 11 10 10 10 10 10 10 10 10 10 10
14 14 14 14 14 13 13 13 13 13 13 13 13 13 12 12 12 12 12 12 12 12 12 11 11 11 11 11 11 11 11 10 10 10 10 10 10 10 10 10 10 10 10
13 13 13 13 13 13 13 13 13 13 13 13 13 12 12 12 12 12 12 12 12 11 11 11 11 11 11 11 11 11 10 10 10 10 10 10 10 10 10 10 9 9 9
13 13 13 13 13 13 13 13 13 13 13 13 13 12 12 12 12 12 12 12 11 11 11 11 11 11 11 11 11 11 10 10 10 10 10 10 9 9 9 9 9 9 9
13 13 13 13 13 13 13 13 13 13 13 13 13 12 12 12 12 12 12 12 11 11 11 11 11 11 11 11 11 10 10 10 10 10 9 9 9 9 9 9 9 9 9
12 13 13 13 13 13 13 13 13 13 13 13 13 13 12 12 12 12 12 12 11 11 11 11 11 11 11 11 11 10 10 10 10 9 9 9 9 9 9 9 9 9 9
12 13 13 13 13 13 13 13 13 13 13 13 13 13 12 12 12 12 12 11 11 11 11 11 11 11 11 11 10 10 10 10 10 9 9 9 9 9 9 9 9 9 9
12 12 12 13 13 13 13 13 13 13 13 13 12 12 12 12 12 12 12 11 11 11 11 11 11 11 11 11 10 10 10 10 10 9 9 9 9 9 9 9 9 9 9
12 12 12 12 12 13 13 13 13 13 13 13 12 12 12 12 12 12 12 12 11 11 11 11 11 11 11 11 11 10 10 10 10 9 9 9 9 9 9 9 9 9 9
12 12 12 12 12 12 13 13 12 12 13 13 13 12 12 12 12 12 12 11 11 11 11 11 11 11 11 11 10 10 10 10 9 9 9 9 9 9 9 9 9 9 9
12 12 12 12 12 12 12 12 12 12 12 12 12 12 12 12 12 12 11 11 11 11 11 11 10 10 10 10 10 10 10 9 9 9 9 9 9 9 8 8 8 8 8
12 12 12 12 12 12 12 12 12 12 12 12 12 12 12 12 12 11 11 11 11 11 10 10 10 10 10 10 10 9 9 9 9 9 8 8 8 8 8 8 8 8 8
11 11 12 11 11 12 12 12 12 12 12 12 11 11 11 11 11 11 11 11 11 11 10 10 10 10 10 9 9 9 9 9 9 8 8 8 8 8 8 8 8 8 8
11 11 11 11 11 11 11 11 11 11 11 11 11 11 11 11 11 10 10 10 10 10 10 10 9 9 9 9 9 9 9 9 8 8 8 8 8 8 8 8 8 8 8
11 11 11 11 10 10 10 10 10 10 10 10 10 10 10 10 10 10 10 10 10 9 9 9 9 9 9 9 9 9 9 9 8 8 8 8 8 8 8 7 8 8 8
Wind_Speed
6 5 4 4 3 3 2 2 2 2 2 3 4 4 4 5 5 5 5 5 5 5 5 4 4 3 3 3 3 3 3 3 3 3 2 1 2 3 2 4 5 6 8
6 5 4 3 3 3 3 2 2 2 2 2 3 4 4 4 4 5 5 5 5 5 5 4 4 4 3 3 3 3 3 3 3 3 3 3 3 3 4 4 5 6 5
6 6 5 4 4 3 2 2 2 2 2 2 2 3 4 4 4 4 4 4 4 4 4 4 4 4 4 3 4 3 3 3 3 3 4 3 3 3 3 4 4 3 5
5 5 5 5 4 3 3 2 3 2 2 2 3 3 3 3 3 4 4 4 4 4 4 4 4 4 3 3 3 3 3 3 2 2 3 3 2 2 2 3 3 2 3
5 5 5 5 4 3 3 3 3 3 3 2 3 2 3 3 3 3 3 4 3 3 3 3 4 4 4 4 3 2 2 2 2 3 3 2 2 2 2 2 3 2 2
4 4 4 4 4 4 4 4 3 3 3 3 2 3 3 3 2 2 2 3 3 3 3 3 3 3 4 5 6 4 4 4 4 3 3 3 3 3 2 2 1 1 2
5 5 5 5 5 4 4 4 4 3 3 3 3 3 3 2 3 3 3 3 3 3 3 3 4 3 1 2 4 6 5 7 6 4 4 4 4 3 2 2 2 2 3
3 4 4 4 4 4 4 4 4 3 3 3 3 3 3 3 4 4 3 2 3 2 2 3 2 1 2 2 3 3 4 3 5 4 4 4 4 3 3 3 3 3 3
2 2 2 3 3 3 3 3 3 3 3 3 3 3 3 3 4 4 4 3 2 3 3 2 2 2 1 1 2 2 2 2 3 3 4 5 5 5 3 1 2 2 3
2 2 1 1 2 3 3 3 3 3 4 4 3 3 4 3 6 6 5 3 3 3 2 2 2 2 2 1 1 2 3 3 3 3 3 4 5 5 5 3 3 3 3
2 2 2 2 2 2 2 3 3 3 3 4 4 4 3 4 6 8 7 3 3 2 2 1 1 4 4 3 3 3 4 3 3 3 2 2 2 2 2 3 3 3 3
0 1 1 2 3 2 2 2 3 3 4 4 4 4 3 4 6 8 8 7 4 3 2 1 1 3 3 4 4 5 5 4 3 2 2 2 2 1 2 2 3 4 5
1 1 2 2 2 2 3 4 3 3 3 4 3 3 3 3 5 7 8 8 6 3 2 1 2 4 4 4 6 6 4 3 3 2 3 3 2 2 2 2 3 4 5
1 2 3 3 4 3 3 3 3 3 3 2 2 2 2 2 2 3 4 4 5 5 4 4 5 6 5 5 4 4 4 4 3 3 3 3 3 3 3 2 3 3 4
2 4 4 5 5 4 4 4 4 3 4 3 2 2 2 2 2 3 3 3 3 3 2 3 3 4 4 4 4 3 4 3 4 4 4 3 3 3 3 3 3 3 4
3 4 4 4 4 4 4 3 3 4 5 5 5 4 2 3 5 5 4 4 3 3 2 3 4 4 4 3 3 3 3 3 4 4 4 3 3 3 3 3 2 3 3
3 4 4 4 4 4 4 4 3 3 5 6 7 7 7 5 5 6 5 4 3 3 3 5 4 3 3 3 2 2 2 2 3 3 3 3 3 3 3 3 3 3 3
3 4 4 4 3 4 4 4 4 4 4 3 5 8 8 8 8 7 5 3 2 4 5 5 4 3 3 2 2 2 2 2 2 3 3 3 3 4 4 4 4 4 4
4 4 3 4 3 3 3 3 3 3 3 3 3 3 7 7 6 5 6 4 5 5 5 4 4 3 3 2 2 2 2 2 2 3 3 3 3 3 3 4 4 5 5
3 4 3 4 4 4 3 2 3 3 2 3 3 3 4 4 4 4 5 6 6 5 4 4 3 3 2 2 1 2 2 2 3 3 3 3 3 3 4 4 4 4 4
3 3 3 4 4 3 3 2 3 3 3 2 2 2 5 5 4 4 5 5 4 4 4 3 3 2 2 1 1 2 2 1 1 1 1 2 2 2 3 4 4 4 4
3 3 3 3 3 3 2 3 2 2 2 2 2 1 4 3 3 2 2 2 2 2 2 2 3 2 1 1 1 1 1 1 1 1 2 2 2 3 3 4 4 3 3
3 3 3 3 3 3 3 3 2 1 2 2 2 1 1 2 2 1 1 1 1 1 1 1 2 2 1 1 1 0 0 1 1 1 2 3 3 3 3 4 4 5 4
4 4 4 3 3 3 3 2 2 2 2 2 2 2 2 2 2 3 2 1 1 1 0 1 1 1 1 1 1 1 1 0 1 2 3 4 4 4 4 4 4 5 4
3 3 3 2 2 2 2 2 2 2 2 3 2 2 2 2 2 2 2 2 2 2 2 1 1 1 2 3 1 1 3 2 1 1 3 4 4 4 5 5 5 5 4
3 3 3 2 2 2 2 2 3 2 2 3 2 2 2 3 2 3 3 3 3 3 3 2 3 3 3 3 1 2 3 2 1 2 3 4 4 5 5 5 6 5 5
Wind_Direction
176 179 177 185 196 205 202 195 201 199 200 206 203 210 212 211 209 210 219 219 219 221 226 224 225 241 252 261 251 238 243 253 265 272 261 252 253 250 231 239 229 218 219
174 172 172 181 187 199 206 195 195 196 205 215 213 214 220 217 211 214 226 227 224 223 224 226 225 232 234 254 260 257 255 250 247 259 265 262 258 234 227 232 236 240 235
173 173 173 184 188 199 211 209 208 209 211 215 214 220 229 227 215 217 224 237 229 223 223 223 225 225 237 244 250 250 258 263 246 245 257 256 252 235 232 240 243 243 251
176 176 178 186 192 197 203 214 212 207 207 217 228 223 224 228 226 223 223 237 238 230 225 223 225 218 227 247 252 247 255 269 266 259 259 256 249 242 229 235 246 245 253
181 182 185 185 184 193 203 206 204 207 210 207 224 226 234 230 237 230 230 233 234 235 238 230 222 209 214 222 242 237 245 251 258 257 254 251 249 247 245 235 235 235 252
181 185 181 181 186 195 203 199 194 197 207 209 219 225 235 240 189 193 220 246 242 237 239 233 227 207 218 219 226 231 232 242 257 262 264 262 258 259 264 260 246 265 272
187 190 185 191 199 199 206 196 192 194 200 213 225 226 223 217 184 190 212 237 242 240 236 231 252 253 217 241 226 228 242 243 237 244 260 266 270 272 279 281 280 276 266
192 200 192 195 199 199 204 201 198 196 202 216 230 233 220 218 187 189 211 227 247 240 239 240 232 245 267 273 253 235 231 249 238 234 245 262 268 273 258 251 256 263 263
193 207 203 199 202 196 206 211 202 199 208 221 223 230 217 194 183 189 192 232 226 237 241 241 204 187 232 262 254 260 271 277 267 240 227 245 255 261 255 261 253 245 269
208 209 212 208 205 203 207 210 207 212 218 224 231 239 224 194 184 187 189 224 236 235 221 205 170 162 146 155 249 257 272 288 308 302 273 260 249 248 233 216 237 254 262
215 205 207 239 231 213 205 216 217 215 222 229 233 237 223 199 184 186 186 211 258 266 237 205 188 169 174 205 234 244 250 270 286 282 278 273 259 241 222 213 215 231 250
216 185 207 242 254 234 206 222 232 225 225 232 230 236 221 196 183 193 195 210 242 274 269 215 167 179 204 234 245 252 262 269 265 266 280 277 263 256 254 236 224 230 234
324 245 230 245 250 229 211 220 230 226 227 232 231 228 225 192 175 185 199 217 231 241 262 216 211 227 237 242 240 243 249 246 248 251 260 261 261 251 256 244 234 234 246
253 261 244 238 235 223 219 223 221 221 226 238 237 240 236 197 169 184 201 215 227 234 243 236 219 229 241 251 243 229 223 225 230 244 255 255 255 255 244 237 242 238 249
240 249 247 241 231 226 225 229 221 211 203 213 234 239 240 226 193 180 192 199 218 229 236 241 234 230 230 226 220 215 212 218 232 243 249 249 252 258 259 250 243 243 247
250 255 254 239 230 224 223 223 208 206 188 194 213 225 223 188 175 169 168 182 206 200 196 240 242 245 244 235 227 224 223 228 231 235 240 243 248 257 266 266 255 256 258
274 268 265 256 243 232 226 220 217 210 209 217 218 218 222 212 203 203 204 206 209 180 216 245 245 247 252 249 237 240 238 234 240 241 238 240 242 248 260 269 269 260 259
278 274 268 266 268 266 257 245 234 224 215 222 222 216 216 219 219 216 201 180 221 219 236 246 247 244 240 241 238 236 240 232 238 242 236 241 244 249 250 253 257 258 261
285 284 278 276 274 270 268 266 256 246 224 204 195 197 209 211 213 209 188 217 240 244 242 243 251 257 249 232 230 224 227 228 237 239 234 244 244 249 259 267 268 266 261
279 281 275 278 277 275 271 277 277 260 242 215 205 194 177 187 211 207 207 225 237 246 249 247 246 246 244 240 231 234 233 229 236 239 236 246 247 250 260 261 263 267 263
285 295 278 277 287 297 304 297 288 280 276 257 241 206 183 199 215 220 214 223 230 236 247 251 254 246 236 223 234 257 257 243 250 256 261 268 272 268 268 267 270 273 277
293 293 287 291 294 298 293 284 282 280 301 294 279 228 201 222 239 240 224 220 227 228 244 252 254 261 259 257 263 268 280 292 296 296 289 283 280 280 277 277 280 282 283
289 291 295 293 287 286 284 290 300 297 295 303 328 321 253 246 251 252 236 220 234 228 241 257 264 268 270 353 46 69 313 323 319 312 304 299 293 287 285 283 284 288 287
303 301 299 307 307 303 307 312 314 317 317 322 329 328 321 322 331 331 331 313 285 255 237 249 286 322 340 3 67 94 81 34 321 305 296 286 286 288 286 287 286 286 285
318 317 309 310 319 322 324 326 335 340 341 332 328 328 326 331 339 339 353 3 3 12 7 358 21 12 334 318 328 101 98 93 66 334 292 278 274 279 281 283 282 284 285
316 318 317 317 317 324 341 344 337 329 326 327 333 358 349 339 344 352 355 1 3 360 4 12 20 26 358 360 31 79 111 105 43 315 282 268 268 275 280 279 282 281 284
Height
1485 1486 1487 1488 1489 1490 1491 1491 1491 1491 1492 1492 1492 1494 1494 1495 1495 1496 1497 1498 1499 1500 1501 1502 1503 1503 1504 1505 1505 1505 1506 1507 1506 1505 1506 1505 1505 1505 1505 1506 1506 1506 1506
1483 1484 1485 1486 1487 1488 1488 1488 1489 1489 1490 1490 1491 1492 1492 1493 1493 1494 1494 1496 1496 1497 1498 1499 1500 1500 1501 1502 1502 1502 1503 1503 1503 1502 1501 1501 1502 1502 1502 1502 1502 1502 1502
1481 1482 1483 1484 1485 1485 1486 1486 1487 1487 1488 1488 1489 1489 1490 1491 1491 1491 1492 1493 1494 1494 1495 1496 1497 1497 1498 1498 1498 1499 1499 1500 1499 1498 1498 1498 1498 1498 1498 1498 1498 1498 1498
1480 1481 1481 1482 1483 1484 1484 1484 1484 1485 1485 1486 1486 1487 1487 1488 1489 1489 1490 1490 1491 1492 1492 1493 1494 1494 1495 1495 1495 1495 1496 1496 1496 1495 1494 1494 1494 1494 1495 1494 1494 1495 1495
1479 1479 1480 1481 1481 1482 1482 1482 1483 1483 1483 1484 1484 1485 1485 1486 1486 1486 1487 1487 1488 1488 1489 1490 1491 1491 1492 1492 1492 1492 1493 1492 1492 1492 1491 1491 1491 1491 1491 1491 1491 1491 1492
1477 1478 1479 1480 1480 1480 1480 1480 1481 1481 1482 1482 1482 1483 1483 1484 1484 1484 1484 1484 1485 1485 1486 1487 1488 1488 1489 1489 1489 1490 1490 1490 1489 1489 1489 1488 1488 1488 1488 1488 1488 1489 1488
1475 1476 1477 1478 1479 1479 1479 1479 1479 1479 1480 1480 1480 1481 1481 1481 1481 1482 1482 1482 1482 1483 1483 1484 1485 1486 1486 1486 1486 1486 1487 1486 1486 1486 1486 1485 1485 1485 1485 1485 1485 1485 1485
1473 1474 1475 1476 1477 1477 1478 1477 1477 1478 1478 1478 1479 1479 1479 1479 1479 1479 1479 1480 1480 1481 1481 1482 1482 1483 1483 1483 1483 1483 1483 1483 1483 1483 1483 1482 1482 1482 1482 1482 1482 1482 1483
1471 1472 1473 1474 1474 1475 1476 1476 1476 1476 1476 1476 1477 1477 1477 1477 1477 1477 1477 1478 1478 1479 1479 1480 1480 1480 1480 1480 1480 1480 1480 1480 1480 1480 1480 1479 1479 1479 1479 1479 1479 1479 1478
1468 1469 1470 1471 1472 1472 1473 1473 1473 1474 1473 1474 1474 1474 1474 1474 1475 1475 1475 1476 1476 1477 1477 1477 1478 1477 1477 1477 1477 1477 1477 1477 1477 1477 1476 1476 1476 1476 1475 1475 1475 1475 1475
1466 1467 1467 1469 1470 1470 1471 1471 1471 1471 1472 1472 1472 1472 1472 1472 1473 1473 1474 1474 1474 1475 1475 1475 1475 1475 1475 1475 1474 1474 1474 1474 1474 1474 1473 1473 1473 1472 1472 1472 1472 1472 1472
1464 1465 1465 1466 1467 1468 1468 1469 1469 1469 1469 1470 1470 1470 1470 1470 1471 1471 1472 1472 1473 1473 1473 1473 1473 1473 1472 1472 1472 1472 1472 1472 1471 1471 1470 1470 1470 1470 1469 1469 1469 1469 1469
1463 1463 1464 1464 1465 1466 1466 1466 1467 1467 1467 1467 1468 1468 1468 1469 1469 1469 1470 1470 1471 1470 1471 1471 1470 1470 1470 1469 1469 1469 1469 1469 1469 1468 1468 1468 1468 1468 1467 1467 1466 1466 1466
1461 1462 1462 1462 1463 1463 1463 1464 1464 1464 1464 1465 1465 1466 1466 1467 1467 1467 1467 1468 1468 1468 1468 1468 1468 1467 1467 1467 1466 1466 1466 1466 1466 1466 1465 1465 1465 1465 1464 1464 1464 1463 1463
1459 1460 1460 1460 1460 1461 1461 1461 1461 1461 1462 1463 1463 1464 1464 1464 1465 1465 1465 1465 1465 1465 1465 1465 1465 1464 1464 1464 1464 1464 1463 1463 1463 1463 1463 1463 1463 1462 1462 1462 1461 1461 1460
1458 1458 1458 1458 1458 1458 1458 1458 1458 1459 1460 1460 1461 1461 1462 1462 1463 1463 1463 1463 1463 1463 1463 1462 1462 1462 1462 1462 1462 1461 1461 1461 1460 1460 1460 1460 1459 1459 1459 1459 1458 1458 1457
1456 1456 1456 1456 1456 1455 1455 1455 1456 1457 1457 1457 1458 1458 1459 1459 1460 1460 1460 1461 1461 1461 1460 1460 1460 1460 1460 1460 1460 1459 1459 1458 1458 1457 1457 1456 1456 1456 1456 1456 1455 1455 1454
1455 1454 1454 1454 1453 1453 1453 1453 1453 1454 1454 1454 1455 1455 1456 1456 1457 1457 1458 1458 1458 1458 1457 1458 1458 1458 1457 1457 1457 1456 1456 1455 1455 1454 1454 1454 1454 1453 1453 1453 1452 1452 1451
1453 1452 1452 1452 1451 1451 1451 1450 1451 1451 1451 1451 1452 1452 1453 1453 1454 1454 1454 1455 1454 1454 1455 1455 1455 1455 1455 1455 1454 1454 1453 1453 1452 1452 1451 1451 1451 1451 1450 1450 1449 1449 1448
1451 1450 1450 1450 1449 1449 1449 1449 1449 1449 1449 1449 1449 1450 1450 1450 1450 1451 1451 1451 1451 1452 1452 1452 1452 1452 1452 1452 1451 1451 1451 1450 1449 1449 1449 1448 1448 1448 1447 1447 1446 1445 1444
1449 1449 1448 1448 1448 1447 1447 1447 1447 1447 1447 1447 1448 1447 1447 1447 1448 1448 1448 1448 1449 1449 1449 1449 1449 1449 1449 1449 1449 1448 1448 1447 1447 1446 1446 1446 1445 1445 1444 1444 1443 1442 1441
1448 1447 1447 1446 1446 1446 1445 1445 1445 1445 1445 1445 1445 1445 1445 1445 1446 1446 1446 1446 1446 1446 1446 1446 1446 1446 1446 1446 1445 1445 1444 1444 1443 1443 1443 1443 1442 1442 1441 1440 1440 1439 1438
1446 1445 1445 1444 1443 1443 1444 1443 1443 1443 1443 1443 1443 1443 1443 1443 1443 1444 1443 1443 1443 1443 1443 1443 1443 1443 1443 1442 1442 1441 1440 1440 1440 1439 1439 1439 1439 1438 1438 1437 1437 1436 1435
1444 1444 1443 1442 1442 1442 1442 1442 1441 1441 1441 1441 1441 1441 1441 1441 1441 1441 1441 1441 1441 1440 1440 1440 1439 1439 1439 1438 1438 1437 1436 1436 1436 1436 1436 1435 1435 1435 1434 1434 1433 1432 1431
1443 1442 1441 1440 1440 1440 1440 1440 1439 1439 1439 1439 1439 1439 1439 1439 1439 1439 1438 1438 1438 1437 1437 1436 1435 1435 1434 1434 1433 1433 1432 1432 1432 1432 1432 1432 1431 1431 1430 1430 1429 1428 1427
1442 1441 1440 1439 1439 1438 1438 1438 1437 1437 1438 1437 1437 1437 1437 1437 1436 1436 1435 1435 1434 1434 1433 1432 1431 1430 1430 1430 1429 1429 1428 1428 1428 1428 1428 1427 1427 1426 1426 1426 1425 1424 1423